Regional Weather Roundup
Issued by NWS

Home | Current Version | Previous Version | Graphics & Text | Print | Product List | Glossary On
Versions: 1 2 3 4 5 6 7 8 9 10 11 12 13 14 15 16 17 18 19 20 21 22 23 24 25 26 27 28 29 30 31 32 33 34 35 36 37 38 39 40 41 42 43 44 45 46 47 48 49 50
000
ASUS45 KBOU 220407
RWRCO

WEATHER ROUNDUP FOR COLORADO
NATIONAL WEATHER SERVICE DENVER/BOULDER CO
900 PM MST SUN DEC 21 2014

NOTE: "FAIR" INDICATES FEW OR NO CLOUDS BELOW 12000 FEET WITH NO
SIGNIFICANT WEATHER AND/OR OBSTRUCTIONS TO VISIBILITY.

COZ001>005-013-030-031-220500-
...NORTHWEST COLORADO...

CITY           SKY/WX    TMP DP  RH WIND       PRES   REMARKS
CRAIG          CLOUDY    36  32  85 W17G28    29.79R
HAYDEN         CLOUDY    36  28  75 W22G29    29.77R
MEEKER         LGT SNOW  35  32  88 NW7       29.84R FOG     WCI  29
MOUNT WERNER   NOT AVBL
STEAMBOAT SPGS CLOUDY    34  29  82 W30G41    29.75R WCI  20
WALDEN         CLOUDY    32  23  69 NW25G40   29.70R WCI  19
$$

COZ006>008-011-220500-
...WEST CENTRAL VALLEYS...

CITY           SKY/WX    TMP DP  RH WIND       PRES   REMARKS
GRAND JUNCTION CLOUDY    33  32  96 NE3       29.90S
MONTROSE       CLOUDY    32  31  96 E5        29.90S WCI  27
EAGLE          LGT SNOW  34  30  86 W8        29.81R FOG     WCI  27
RIFLE          LGT RAIN  36  31  82 NW16      29.84R
DELTA          CLOUDY    35  33  92 N3        29.90S
NUCLA          CLOUDY    32  32 100 CALM      29.99R
$$

COZ017>023-064>068-220500-
...SOUTHWEST COLORADO...

CITY           SKY/WX    TMP DP  RH WIND       PRES   REMARKS
DURANGO        CLOUDY    37  29  72 W22       29.90F
CORTEZ         MOCLDY    34  30  85 CALM      29.97S
PAGOSA SPRINGS LGT SNOW  30  30  99 CALM      29.92F
TELLURIDE      CLOUDY    33  32  98 W21G32    29.98R WCI  20
WOLF CREEK PAS LGT SNOW  19  19 100 MISG      29.91S VSB 1
$$

COZ009-010-012-014-032>034-037-058>063-220500-
...CENTRAL COLORADO...

CITY           SKY/WX    TMP DP  RH WIND       PRES   REMARKS
ASPEN          SNOW      30  28  92 N8        29.78R VSB 1/2 WCI  22
BUENA VISTA    LGT SNOW  33  30  90 NE6       29.70F WCI  27
COPPER MTN     CLOUDY    25  19  80 W37G46    29.72R WCI   6
BERTHOUD PASS  HVY SNOW  16  10  79 MISG      29.59R VSB<1/4
COTTONWOOD PAS LGT SNOW  32  28  86 CALM      29.71R
GUNNISON       CLOUDY    36  28  75 SW16G25   29.80F
KREMMLING      LGT SNOW  36  28  75 NW17G26   29.73R
LEADVILLE      SNOW      24  22  91 NW16G25   29.72R VSB 1/2 WCI  11
MONARCH PASS   CLOUDY    21  19  93 MISG      29.83F
SALIDA         CLOUDY    41  27  57 W15       29.77F
SUNLIGHT       SNOW     N/A N/A N/A N7        29.86R VSB 1/2
WILKERSON PASS LGT SNOW  23  21  93 NW21G33   29.72F WCI   8
$$

COZ069>075-220500-
...SAN LUIS VALLEY/SANGRE DE CRISTO MOUNTAINS...

CITY           SKY/WX    TMP DP  RH WIND       PRES   REMARKS
ALAMOSA        CLOUDY    30  24  78 SE5       29.78F WCI  25
LA VETA PASS   CLOUDY    27  23  86 S15G32    29.74R FOG     WCI  15
SAGUACHE       CLOUDY    30  30 100 E5        29.77F WCI  25
$$

COZ035-036-038>040-220500-
...NORTHERN COLORADO FRONT RANGE...

CITY           SKY/WX    TMP DP  RH WIND       PRES   REMARKS
DENVER INTL AP LGT RAIN  37  33  85 NE8       29.62R
DMNS CITY PARK   N/A     42  34  71 NW8G18    29.63R
AURORA         LGT RAIN  41  34  75 NW8       29.65R
FRONT RANGE AP LGT RAIN  37  34  87 NE7       29.63R
ERIE MUNI ARPT DRIZZLE   41  36  81 W15       29.62R
BOULDER MUN AP LGT RAIN  39  37  93 NW6       29.63R
CENTENNIAL     LGT RAIN  39  34  82 N13       29.64R
BROOMFIELD     DRIZZLE   41  36  81 NW12      29.63R
FORT COLLINS   MOCLDY    43  30  61 NW31G40   29.63R
LONGMONT       CLOUDY    45  35  70 W17G30    29.64R
$$

COZ041-046-047-076>085-087-088-220500-
...PIKES PEAK/PALMER DIVIDE AND SOUTHERN FOOTHILLS...

CITY           SKY/WX    TMP DP  RH WIND       PRES   REMARKS
COLO. SPRINGS  MOCLDY    37  26  64 N10       29.63R
A. F. ACADEMY  MOCLDY    38  26  62 N10       29.62S
ELLICOTT       NOT AVBL
FALCON         LGT RAIN  38  28  66 N10G16    29.65R
FORT CARSON    MOCLDY    42  27  56 E9        29.61R
LIMON          LGT RAIN  36  35  96 N7        29.63R
MONUMENT HILL  LGT SNOW  32  32 100 NW13      29.65R WCI  22
TRINIDAD       CLEAR     47  25  42 NW15      29.63R
$$

COZ042>045-048>051-090-091-220500-
...NORTHEAST COLORADO...

CITY           SKY/WX    TMP DP  RH WIND       PRES   REMARKS
GREELEY ARPT   MOCLDY    41  28  60 N16       29.59R
AKRON          LGT RAIN  37  34  89 NW23      29.59R
BURLINGTON     CLOUDY    41  35  79 W17       29.58R
WRAY           PTCLDY    38  32  81 W9        29.54R
STERLING       CLOUDY    43  36  75 NW23      29.54R
HOLYOKE        PTCLDY    37  32  81 W9        29.54R
FORT MORGAN    CLOUDY    36  33  90 NW7       29.58S
$$

COZ086-089-092>099-220500-
...SOUTHEAST COLORADO...

CITY           SKY/WX    TMP DP  RH WIND       PRES   REMARKS
PUEBLO         MOCLDY    50  28  42 NW17      29.59S
LA JUNTA       CLOUDY    36  29  75 NW6       29.60R
LAMAR          CLOUDY    39  31  72 SW5       29.57R
SPRINGFIELD      N/A     41  26  55 NW9       29.57S
$$


USA.gov is the U.S. government's official web portal to all federal, state and local government web resources and services.